EW2149 Weather Reports


time (UTC)temp
C
wind
direction
speed
KPH
gust
KPH
rain 1hr
cm
rain 24hr
cm
rain mn
cm
humidity
%
barometer
mb
20200225213009 2 202 3.2 9.7 0.00 0.79 0.79 89 996.3
20200225212009 2 180 6.4 19.3 0.00 0.79 0.79 89 996.6
20200225211014 2 225 1.6 19.3 0.00 0.79 0.79 89 996.7
20200225205014 3 202 3.2 19.3 0.00 0.79 0.79 89 997.2
20200225204013 3 202 8.0 19.3 0.00 0.79 0.79 90 997.4
20200225202013 3 225 6.4 27.4 0.00 0.79 0.79 92 997.5
20200225201013 2 225 9.7 19.3 0.00 0.79 0.79 92 997.6
20200225200013 2 225 8.0 20.9 0.03 0.79 0.79 93 997.6
20200225195013 2 225 11.3 16.1 0.08 0.79 0.79 93 997.7
20200225194012 2 202 9.7 22.5 0.15 0.79 0.79 93 997.6
20200225192012 2 0 0.0 4.8 0.20 0.79 0.79 92 997.6
20200225191013 2 0 0.0 6.4 0.20 0.79 0.79 91 997.8
20200225190013 2 225 9.7 16.1 0.23 0.79 0.79 91 998.4
20200225184012 3 225 4.8 16.1 0.18 0.64 0.64 91 998.3
20200225181011 3 157 9.7 25.7 0.15 0.61 0.61 90 998.0
20200225180012 3 225 20.9 25.7 0.08 0.53 0.53 90 998.1
20200225175011 3 202 6.4 17.7 0.00 0.46 0.46 90 998.1
20200225173011 3 180 6.4 17.7 0.00 0.46 0.46 89 998.2
20200225171010 3 0 0.0 17.7 0.03 0.46 0.46 89 998.4
20200225165010 4 202 3.2 19.3 0.05 0.46 0.46 89 998.9
20200225164010 4 202 11.3 17.7 0.05 0.46 0.46 88 999.0
20200225163010 4 202 9.7 19.3 0.05 0.46 0.46 88 999.1
20200225162010 5 225 4.8 12.9 0.05 0.43 0.43 87 999.3
20200225161009 5 225 4.8 22.5 0.05 0.43 0.43 83 999.3
20200225160010 6 180 17.7 35.4 0.03 0.43 0.43 76 999.4
20200225152012 7 202 9.7 27.4 0.00 0.41 0.41 67 999.3
20200225150013 8 202 19.3 25.7 0.00 0.41 0.41 66 999.3
20200225145011 8 225 11.3 27.4 0.00 0.41 0.41 65 999.5
20200225144011 8 225 12.9 27.4 0.00 0.41 0.41 65 999.6
20200225142011 8 225 16.1 30.6 0.00 0.41 0.41 66 1000.0
20200225134010 7 225 8.0 14.5 0.00 0.41 0.41 74 1000.4
20200225133010 7 225 12.9 22.5 0.00 0.41 0.41 74 1000.5
20200225132010 7 202 3.2 16.1 0.00 0.41 0.41 79 1000.8
20200225131010 6 225 9.7 17.7 0.00 0.41 0.41 79 1001.2
20200225130010 7 202 4.8 38.6 0.03 0.41 0.41 74 1001.5
20200225125010 7 202 12.9 32.2 0.03 0.41 0.41 78 1001.3
20200225122009 5 225 20.9 30.6 0.05 0.41 0.41 85 1002.0
20200225113013 7 225 25.7 33.8 0.00 0.33 0.33 76 1002.0
20200225112014 7 225 11.3 33.8 0.00 0.33 0.33 77 1002.1
20200225105013 7 225 17.7 30.6 0.00 0.33 0.33 75 1002.5
20200225104013 8 225 14.5 24.1 0.00 0.33 0.33 77 1002.5
20200225100013 6 202 9.7 22.5 0.00 0.33 0.33 79 1002.8
20200225095012 6 225 9.7 20.9 0.00 0.33 0.33 80 1002.9
20200225093011 6 225 11.3 25.7 0.00 0.33 0.33 81 1003.3
20200225085016 6 225 11.3 25.7 0.00 0.36 0.33 84 1003.4
20200225083016 6 225 3.2 20.9 0.00 0.36 0.33 85 1003.4
20200225082015 6 202 9.7 20.9 0.00 0.36 0.33 86 1003.3
20200225081016 6 225 3.2 20.9 0.00 0.36 0.33 86 1003.5
20200225075015 5 225 11.3 24.1 0.00 0.41 0.33 85 1003.5
20200225071014 6 270 11.3 24.1 0.00 0.41 0.33 88 1003.6
20200225070015 6 202 16.1 29.0 0.00 0.41 0.33 89 1003.6
20200225063014 6 225 3.2 17.7 0.03 0.41 0.33 92 1003.6
20200225062014 6 247 3.2 9.7 0.03 0.41 0.33 92 1003.7
20200225061013 6 225 3.2 20.9 0.03 0.41 0.33 92 1003.6
20200225060014 6 202 6.4 19.3 0.05 0.41 0.33 92 1003.5
20200225055013 6 247 6.4 11.3 0.05 0.41 0.33 92 1003.5
20200225054013 6 202 3.2 14.5 0.05 0.38 0.33 91 1003.4
20200225052013 7 202 11.3 27.4 0.25 0.38 0.33 93 1003.7
20200225051013 7 202 19.3 38.6 0.28 0.38 0.33 94 1003.7
20200225050013 7 202 14.5 22.5 0.25 0.36 0.30 94 1003.7
20200225045012 7 247 4.8 9.7 0.23 0.33 0.28 94 1003.8
20200225044012 7 202 4.8 16.1 0.23 0.33 0.28 94 1003.8
20200225035011 8 180 11.3 24.1 0.00 0.10 0.05 93 1003.8
20200225034011 8 180 12.9 20.9 0.03 0.10 0.05 93 1003.9
20200225033011 8 180 4.8 22.5 0.03 0.10 0.05 93 1004.0
20200225032011 8 180 3.2 14.5 0.05 0.10 0.05 93 1004.2
20200225030011 8 202 6.4 11.3 0.05 0.10 0.05 93 1004.5
20200225025015 8 0 0.0 0.0 0.05 0.10 0.05 92 1004.7
20200225021015 8 202 14.5 22.5 0.00 0.05 0.00 92 1004.9
20200225015014 8 202 14.5 19.3 0.00 0.05 0.00 92 1005.5
20200225013014 8 180 9.7 17.7 0.00 0.05 0.00 91 1005.9
20200225012014 8 202 8.0 24.1 0.00 0.05 0.00 90 1006.0